Home   Weather   Alexandria   Past weeks

Flag for USA Past Weather in Alexandria, Virginia, USA — Yesterday and Last 2 Weeks

Now
81 °F

More clouds than sun.


Feels Like: 83 °F
Forecast: 57 / 83 °F
Wind: 10 mph from South

Location: Reagan National Airport

Current Time: Apr 27, 2017 at 3:13:18 pm

Latest Report: Apr 27, 2017 at 1:52 pm


Visibility: 10 mi

Pressure: 29.80 "Hg

Humidity: 60%

Dew Point: 66 °F

Location of AlexandriaLocation

Past Weather in Alexandria — Graph

°F

Alexandria Temperature Yesterday

Maximum temperature yesterday: 71 °F (at 5:52 pm)
Minimum temperature yesterday: 58 °F (at 5:52 am)
Average temperature yesterday: 63 °F

High & Low Weather Summary for the Past Weeks

 TemperatureHumidityPressure
High88 °F (Apr 16, 2:52 pm)100% (Apr 25, 7:52 am)30.45 "Hg (Apr 25, 7:52 am)
Low49 °F (Apr 23, 6:52 am)23% (Apr 13, 1:52 pm)29.70 "Hg (Apr 26, 2:52 am)
Average63 °F72%30.06 "Hg
* Reported Apr 12 1:52 pm — Apr 27 1:52 pm, Alexandria, Weather by CustomWeather, © 2017

Note: Actual official high and low records may vary slightly from our data, if they occured in-between our weather recording intervals... More about our weather records

Advertising

Alexandria Weather History for the Previous 24 Hours

Scroll right to see more
 ConditionsComfort  
Time TempWeatherWind HumidityBarometerVisibility
1:52 pm
Thu, Apr 27
81 °FMore clouds than sun.10 mph60%29.80 "Hg10 mi
12:52 pm78 °FHigh level clouds.8 mph66%29.82 "Hg10 mi
11:52 am75 °FHigh level clouds.7 mph74%29.85 "Hg10 mi
10:52 am72 °FPartly sunny.7 mph76%29.86 "Hg10 mi
9:52 am68 °FScattered clouds.6 mph84%29.86 "Hg10 mi
9:27 am67 °FScattered clouds.3 mph85%29.85 "Hg10 mi
9:06 am66 °FPartly sunny.No wind84%29.86 "Hg10 mi
8:52 am65 °FScattered clouds.3 mph87%29.85 "Hg10 mi
7:52 am61 °FScattered clouds.3 mph93%29.85 "Hg8 mi
6:58 am59 °FPassing clouds.6 mph96%29.84 "Hg7 mi
5:52 am59 °FClear.5 mph96%29.83 "Hg10 mi
5:19 am59 °FPassing clouds.5 mph96%29.83 "Hg10 mi
4:52 am59 °FPassing clouds.5 mph96%29.82 "Hg10 mi
3:52 am60 °FPassing clouds.No wind93%29.82 "Hg9 mi
2:52 am60 °FPassing clouds.No wind93%29.82 "Hg10 mi
1:52 am61 °FPassing clouds.No wind90%29.83 "Hg10 mi
12:52 am61 °FClear.No wind90%29.85 "Hg10 mi
11:52 pm
Wed, Apr 26
61 °FClear.3 mph90%29.84 "Hg10 mi
10:52 pm62 °FClear.3 mph90%29.84 "Hg10 mi
9:52 pm63 °FPassing clouds.3 mph87%29.83 "Hg10 mi
8:52 pm64 °FPassing clouds.5 mph87%29.81 "Hg10 mi
7:52 pm67 °FPartly sunny.7 mph76%29.80 "Hg10 mi
6:52 pm69 °FBroken clouds.7 mph73%29.78 "Hg10 mi
5:52 pm71 °FPartly sunny.7 mph68%29.77 "Hg10 mi
4:52 pm70 °FPartly sunny.6 mph68%29.77 "Hg10 mi
3:52 pm69 °FMore clouds than sun.6 mph68%29.78 "Hg10 mi
Weather by CustomWeather, © 2017

See weather overviewHow to use our weather pages